Location: *
(42.4983°N, 2.0347°E)
Time: 20:57:29
(UTC+00:00)

Daily predictions for brighter satellites

Satellite Brightness Start Highest point End
(mag) Time Altitude Azimuth Time Altitude Azimuth Time Altitude Azimuth
Okean O Rocket 4.4 17:20:32 10° SSW 17:24:12 25° W 17:27:55 10° NW
NOAA 12 4.2 17:19:08 10° SSE 17:24:18 57° ENE 17:29:30 10° N
Envisat 3.3 17:19:49 10° SE 17:24:35 43° ENE 17:29:23 10° N
COBE Rocket 4.2 17:21:40 10° NNE 17:26:39 49° E 17:31:28 10° S
Cosmos 1356 3.6 17:26:45 10° SSW 17:30:10 76° W 17:33:37 10° N
Cosmos 1328 3.7 17:26:35 10° N 17:30:33 76° E 17:34:27 10° SSE
H-2A R/B 2.9 17:27:31 10° SSE 17:31:26 85° W 17:35:22 10° NNW
COSMO-SKYMED 1 3.1 17:29:31 10° NNE 17:33:36 38° E 17:37:39 10° SSE
USA 238 DEB 3.7 17:29:31 10° SSW 17:36:07 68° ESE 17:42:56 10° NE
USA 238 3.7 17:29:38 10° SSW 17:36:13 67° ESE 17:43:02 10° NE
Cosmos 2082 Rocket 2.6 17:31:05 10° NNW 17:36:31 43° ENE 17:41:53 10° SE
Cosmos 2058 4.3 17:38:05 10° NNE 17:41:02 18° ENE 17:43:58 10° ESE
Cosmos 1339 Rocket 4.4 17:37:53 10° S 17:43:54 66° E 17:50:01 10° NNE
Unknown 3.5 17:41:29 10° NW 17:44:55 49° NNE 17:47:59 12° ESE
Cosmos 1076 Rocket 4.3 17:43:44 10° NNE 17:47:33 29° ENE 17:51:20 10° SE
Okean-O 3.0 17:45:28 10° S 17:49:52 71° WSW 17:54:19 10° NNW
Cosmos 1726 3.3 17:46:29 10° SSW 17:50:00 46° W 17:53:33 10° N
Cosmos 1939 Rocket 4.2 17:47:13 10° ESE 17:50:08 20° ENE 17:53:06 10° NNE
Delta 2 Rocket 4.5 17:50:21 10° WSW 17:53:31 26° S 17:56:06 12° ESE
ATLAS 5 CENTAUR R/B 4.4 17:54:45 10° NNW 17:55:42 10° NNW 17:56:40 10° N
SKYMED 3 4.5 17:53:17 10° NNE 17:57:38 72° ESE 18:01:57 10° S
NOSS 3-2 (A) 3.3 17:52:20 10° SSW 17:58:00 78° ESE 18:04:26 10° NE
Cosmos 1703 4.2 17:55:56 10° NNW 17:59:46 52° W 18:03:33 10° S
Cosmos 1605 Rocket 4.0 17:55:35 10° N 18:01:46 90° E 18:07:51 10° S
Ariane Rocket 3.7 18:02:57 10° SE 18:07:22 31° ENE 18:11:49 10° N
Cosmos 1812 Rocket 3.5 18:03:16 10° S 18:07:40 67° E 18:12:06 10° NNE
Cosmos 1727 Rocket 3.9 18:07:57 10° S 18:14:05 78° E 18:20:17 10° N
Cosmos 2278 Rocket 3.2 18:09:45 10° SW 18:15:11 47° WNW 18:20:41 10° NNE
YAOGAN 6 2.6 18:11:56 10° S 18:15:35 83° W 18:19:12 10° NNW
ASTEX 1 4.1 18:12:09 10° N 18:17:02 56° W 18:21:53 10° SSW
Cosmos 2173 Rocket 4.2 18:11:53 10° N 18:17:51 46° ENE 18:23:41 10° SSE
YAOGAN 1 2.4 18:14:25 10° SSE 18:18:43 79° ENE 18:23:04 10° N
CSL-04 Rocket 3.6 18:15:08 10° SSE 18:20:40 83° ENE 18:26:10 10° NNW
Cosmos 990 Rocket 4.4 18:16:18 10° N 18:21:12 39° ENE 18:23:48 24° ESE
Lacrosse 5 2.0 18:16:14 10° NW 18:21:18 77° SW 18:25:45 13° SE
Cosmos 2297 3.7 18:15:44 10° S 18:21:21 65° ESE 18:27:02 10° NNE
SKYMED 2 4.1 18:17:24 10° N 18:21:43 62° WNW 18:25:59 10° SSW
Shenzhou-11 Module 4.2 18:21:49 10° WSW 18:23:50 18° SSW 18:25:16 13° S
Cosmos 1937 Rocket 4.2 18:19:25 10° N 18:24:01 32° ENE 18:25:12 29° E
CZ-4 R/B 1.8 18:20:43 10° S 18:24:53 67° WSW 18:29:07 10° NNW
Unknown 3.7 18:21:37 10° WNW 18:24:58 55° SW 18:26:46 24° SSE
NOSS 3-2 (C) 3.3 18:19:26 10° SSW 18:25:08 79° ESE 18:31:35 10° NE
BREEZE-M DEB (TANK) 3.3 18:14:05 10° WSW 18:26:11 87° NNW 18:28:17 28° ENE
Unknown 4.3 18:23:52 10° NW 18:27:21 32° NNE 18:27:57 30° NE
Cosmos 1570 Rocket 4.4 18:26:58 10° S 18:31:56 41° ESE 18:34:59 21° NE
Cosmos 1802 Rocket 4.2 18:26:12 10° N 18:32:26 50° ENE 18:38:34 10° SSE
Cosmos 1000 Rocket 4.4 18:30:04 10° S 18:36:08 62° E 18:42:19 10° NNE
USA 116 3.9 18:33:32 10° N 18:36:50 60° WNW 18:40:27 10° SSW
Cosmos-2242 3.1 18:34:39 10° S 18:38:52 51° E 18:43:04 10° NNE
FALCON 9 DEB 4.0 18:38:09 10° WNW 18:41:30 47° SW 18:42:32 34° S
Cosmos 44 3.5 18:36:49 10° SW 18:41:46 70° NW 18:45:15 18° NNE
Cosmos 1725 Rocket 4.4 18:36:31 10° N 18:42:22 39° ENE 18:43:50 34° ESE
NOAA 11 4.0 18:37:42 10° SSE 18:43:08 79° ENE 18:48:35 10° N
Cosmos 1763 Rocket 3.5 18:38:40 10° S 18:43:52 58° ESE 18:47:27 20° NNE
Cosmos 1833 Rocket 4.1 18:39:56 10° NW 18:45:05 38° WSW 18:50:12 10° S
ATLAS 3B R/B 2.5 18:40:49 10° SSW 18:47:33 76° ESE 18:52:29 19° NE
Cosmos 2100 Rocket 3.8 18:42:30 10° N 18:48:43 85° E 18:54:50 10° S
Cosmos 2208 Rocket 4.1 18:44:21 10° S 18:49:20 49° ESE 18:49:39 48° E
BREEZE-M DEB (TANK) 3.3 18:47:35 10° W 18:51:05 36° NNW 18:51:05 36° NNW
Cosmos 2084 Rocket 4.1 18:46:56 10° NW 18:51:15 53° WSW 18:53:37 24° S
CENTAUR R/B 2.4 18:47:18 10° SSW 18:53:11 87° ESE 18:58:23 18° NE
Cosmos 1300 4.1 18:52:13 10° SSW 18:55:48 39° WNW 18:59:24 10° N
Unknown 4.4 18:53:00 10° NW 18:56:04 37° N 18:56:04 37° N
SJ 16-02 1.7 18:52:56 10° N 18:56:27 48° NNE 18:56:27 48° NNE
Abrixas rocket 4.1 18:54:40 10° NW 18:56:26 22° NNW 18:56:26 22° NNW
Unknown 4.4 18:57:43 10° WNW 19:01:01 37° SW 19:01:06 37° SW
Cosmos 2016 Rocket 3.9 18:56:57 10° N 19:03:16 71° E 19:07:42 21° SSE
Cosmos 2369 Rocket 3.7 19:02:11 10° S 19:04:06 21° SSE 19:04:06 21° SSE
Cosmos 44 Rocket 4.5 19:04:19 10° SSW 19:07:01 30° S 19:07:01 30° S
CZ-2D R/B 4.4 19:07:03 15° SSW 19:10:01 43° W 19:13:44 10° NNW
SL-08 R/B 4.3 19:06:40 10° N 19:12:46 70° E 19:13:57 56° SE
Cosmos 1898 Rocket 3.8 19:12:31 10° NNW 19:17:46 64° WSW 19:19:54 35° S
Cosmos 2058 4.4 19:14:12 10° NNW 19:18:05 36° W 19:21:56 10° SSW
MOS 1 4.1 19:17:41 59° SSE 19:18:50 86° ENE 19:24:31 10° NNW
H-2A R/B 3.3 19:21:20 30° NNE 19:21:20 30° NNE 19:24:12 10° N
Cosmos 2082 Rocket 4.0 19:15:34 10° NW 19:20:23 29° WSW 19:25:09 10° SSW
Cosmos 1943 Rocket 3.2 19:17:37 10° SSW 19:20:37 33° S 19:20:37 33° S
Cosmos 1939 Rocket 4.5 19:22:34 19° SSW 19:24:49 34° W 19:28:33 10° NNW
ADEOS Rocket 3.4 19:52:39 10° NNE 20:06:24 14° SSW 20:07:09 10° SSW
ATLAS 3B R/B 4.2 20:33:15 10° W 20:38:52 28° NW 20:39:47 27° NNW
CENTAUR R/B 4.4 20:39:40 10° W 20:44:51 26° NNW 20:45:37 25° NNW
